Location: Jihlava
(49.4000°N, 15.5830°E)
Time: 18:00:26
(UTC+02:00)

ISS - Pass Details

Date: 21 May 2021
Orbit: 419 x 422 km, 51.6° (Epoch: 24 June)

Event Time Altitude Azimuth Distance (km) Brightness Sun altitude
Rises 23:39:08 0° 286° (WNW) 2,285 0.5 -18.3°
Reaches altitude 10° 23:41:14 10° 289° (WNW) 1,415 -0.6 -18.4°
Maximum altitude 23:44:24 71° 14° (NNE) 404 -3.8 -18.5°
Enters shadow 23:45:04 49° 81° (E) 495 -3.5 -18.5°
